SCP
0 0 0 0 0 0 0 0 0 0 0 0 0 0 0 0 0 0 0 0 0 0 0 1 1 0 0 0 0 0 0 1 0 0 0 0 0 0 0 0 0 0 0 0 0 0 0
0 0 0 0 0 0 0 0 0 0 0 0 0 0 0 0 0 0 0 0 0 0 0 0 1 0 0 0 0 0 0 0 0 0 0 0 0 0 0 0 0 0 0 0 0 0 0
0 0 0 0 0 0 0 0 0 0 0 0 0 0 0 0 0 0 0 0 0 0 0 0 0 0 0 0 0 0 0 0 0 0 0 0 0 0 0 0 0 0 0 0 0 0 0
0 0 0 0 0 0 0 0 0 0 0 0 0 0 0 0 0 0 0 0 0 0 0 1 0 0 0 0 0 0 0 0 0 0 0 0 0 0 0 0 0 0 0 0 0 0 0
0 0 0 0 0 0 0 0 0 0 0 0 0 0 0 0 0 0 0 0 0 0 0 0 1 0 0 0 0 0 0 0 0 0 0 0 0 0 0 0 0 0 0 0 0 0 0
0 0 0 0 0 0 0 0 0 0 0 0 0 0 0 0 0 0 0 0 0 0 0 0 0 0 0 0 0 0 0 0 0 0 0 0 0 0 0 0 0 0 0 0 0 0 0
0 0 0 0 0 0 0 0 0 0 0 0 0 0 0 0 0 0 1 1 0 0 0 0 0 0 0 0 0 0 0 0 0 0 0 0 0 0 0 0 0 0 0 0 0 0 0
0 0 0 0 0 0 0 0 0 0 0 0 0 0 0 0 0 1 0 1 0 0 0 0 0 0 0 0 0 0 0 0 0 0 0 0 0 0 0 0 0 0 0 0 0 0 0
0 0 0 0 0 0 0 0 0 0 0 0 0 0 0 -0 -0 0 0 0 0 0 0 0 0 0 0 0 0 0 0 0 0 0 0 0 0 0 0 0 0 0 0 0 0 0 0
0 0 0 0 0 0 0 0 0 0 0 0 0 0 0 -0 0 0 0 0 0 0 0 0 0 0 0 0 0 0 0 0 0 0 0 0 0 0 0 0 0 0 0 0 0 0 0
0 0 -0 -0 -0 -0 -0 0 0 0 0 0 0 0 0 -0 0 0 0 0 0 0 0 0 0 0 0 0 0 0 0 0 0 0 0 0 0 0 0 0 0 0 0 0 0 0 0
0 0 -0 -0 0 0 0 0 0 0 0 0 0 0 0 -0 0 -0 0 0 0 0 0 0 0 0 0 0 0 0 0 0 0 0 0 0 0 0 0 0 0 0 0 0 0 0 0
-0 -0 0 0 -0 0 -0 0 -0 0 0 0 0 0 0 0 0 0 0 0 0 0 0 0 0 0 0 0 0 0 0 0 0 0 0 0 0 0 0 0 0 0 0 0 0 0 0
0 0 0 -0 -0 -0 -0 -0 -0 -0 0 0 0 0 0 0 0 0 0 0 0 0 0 0 0 0 0 0 0 0 0 0 0 0 0 0 0 0 0 0 0 0 0 0 0 0 0
0 -0 0 -0 -0 -0 0 0 0 -0 0 0 0 0 0 0 0 0 0 0 0 0 0 0 0 0 0 0 0 0 0 0 0 0 0 0 0 0 0 0 0 0 0 0 0 0 0
0 0 -0 -0 0 0 0 0 0 0 0 0 0 0 0 0 0 0 0 0 0 0 0 0 0 0 0 0 0 0 0 0 0 0 0 0 0 0 0 0 0 0 0 0 0 0 0
0 0 0 0 0 0 0 0 0 0 0 0 0 0 0 0 0 0 0 0 0 0 0 0 0 0 0 0 0 0 0 0 0 0 0 0 0 0 0 0 0 0 0 0 0 0 0
0 0 -0 -0 0 0 0 0 0 0 0 0 0 0 0 0 0 0 0 0 0 0 0 0 0 0 0 0 0 0 0 0 0 0 0 0 0 0 0 0 0 0 0 0 0 0 0
0 -0 -0 -0 0 0 0 0 0 0 0 0 0 0 0 0 0 0 0 0 0 0 0 0 0 0 0 0 0 0 0 0 0 0 0 0 0 0 0 0 0 0 0 0 0 0 0
-0 -0 -0 -0 0 0 0 0 0 0 1 0 0 0 0 0 0 0 0 0 0 0 0 0 0 0 0 0 0 0 0 0 0 0 0 0 0 0 0 0 0 0 0 0 0 0 0
-0 -0 -0 -0 0 0 0 0 0 0 0 0 0 0 0 0 0 0 0 0 0 0 0 0 0 0 0 0 0 0 0 0 0 0 0 0 0 0 0 0 0 0 0 0 0 0 0
-0 0 -0 -0 0 0 0 0 0 0 0 0 0 0 0 0 0 0 0 0 0 0 0 0 0 0 0 0 0 0 0 0 0 0 0 0 0 0 0 0 0 0 0 0 0 0 0
-0 0 -0 0 0 0 0 0 -0 0 0 0 0 0 0 0 0 0 0 0 0 0 0 0 0 0 0 0 0 0 0 0 0 0 0 0 0 0 0 0 0 0 0 0 0 0 0
0 0 0 0 0 0 0 0 0 0 0 0 0 0 0 0 0 0 0 0 0 0 0 0 0 0 0 0 0 0 0 0 0 0 0 0 0 0 0 0 0 0 0 0 0 0 0
0 0 0 0 0 0 0 0 0 0 0 0 0 0 0 0 0 0 0 0 0 0 0 0 0 0 0 0 0 0 0 0 0 0 0 0 0 0 0 0 0 0 0 0 0 0 0
0 0 0 0 0 0 0 0 0 0 0 0 0 0 0 0 0 0 0 0 0 0 0 0 0 0 0 0 0 0 0 0 0 0 0 0 0 0 0 0 0 0 0 0 0 -0 -0
0 0 0 0 0 0 0 -0 -0 0 0 0 0 0 0 0 0 0 0 0 0 0 0 0 0 0 0 0 0 0 0 0 0 0 0 0 0 0 0 0 0 0 0 0 0 0 0
0 0 0 0 0 0 0 0 0 0 0 0 0 0 0 0 0 0 0 0 0 0 0 0 0 0 0 0 0 0 0 0 0 0 0 0 0 0 0 0 0 0 0 0 0 0 0
0 0 0 0 0 0 0 0 0 0 0 0 0 0 0 0 0 0 0 0 0 0 0 0 0 0 0 0 0 0 0 0 0 0 0 0 0 0 0 0 0 0 0 0 0 0 0
Wind_Speed_500mb
70 69 69 70 74 73 77 79 80 89 85 83 80 81 81 79 77 74 69 63 66 68 62 60 54 52 55 50 54 2 18 45 52 39 35 32 24 13 9 9 6 6 6 8 11 21 23
72 73 73 72 72 76 81 80 82 82 87 89 77 79 83 81 79 76 74 66 64 69 65 60 54 54 60 49 48 57 13 40 59 50 42 36 20 21 11 6 9 4 6 14 13 10 13
82 82 79 77 74 75 75 77 79 84 78 89 88 78 80 82 80 78 76 70 62 64 67 59 58 61 55 65 25 56 46 24 55 56 50 40 30 24 17 8 8 2 5 11 9 10 9
77 79 79 77 79 82 80 80 80 80 83 80 87 74 71 81 81 79 77 73 64 60 68 60 53 49 41 73 32 34 56 43 39 57 44 39 27 22 10 11 8 2 6 0 5 7 9
77 76 76 79 80 83 84 85 85 85 85 83 81 85 80 83 80 79 75 73 62 56 62 57 48 51 11 56 64 46 42 51 45 52 46 36 28 12 14 11 5 6 7 8 11 11 3
71 73 72 74 81 81 80 85 86 90 87 88 84 81 74 76 76 81 77 71 60 51 51 49 44 28 37 43 63 64 49 38 54 46 37 32 13 8 1 9 21 12 9 5 6 5 1
71 71 79 73 72 76 72 72 83 87 86 90 88 85 85 85 75 89 81 74 58 27 66 59 28 21 20 36 49 61 55 40 47 49 19 25 13 33 27 7 10 12 7 6 5 6 4
68 70 76 67 69 68 69 72 77 69 73 85 92 91 88 98 95 75 93 93 75 41 29 59 14 74 25 49 36 54 53 37 31 21 20 9 35 15 16 15 9 10 7 5 7 4 2
68 70 67 71 71 76 73 71 74 72 75 77 87 90 89 95 102 70 123 110 86 42 19 37 36 53 34 40 27 56 61 39 5 15 28 24 6 31 16 9 13 9 18 5 10 11 6
71 73 75 78 80 77 84 83 84 76 73 76 76 83 83 85 73 76 104 118 95 57 9 15 28 20 53 28 10 37 68 43 13 26 15 12 4 22 15 12 14 16 11 8 6 3 12
77 80 84 83 87 90 91 92 85 87 79 78 77 79 80 88 63 68 99 125 99 39 17 24 23 24 43 36 23 23 59 29 17 15 12 6 14 15 10 10 11 6 12 13 7 5 6
79 84 92 95 103 104 103 97 97 95 90 84 82 77 77 80 80 52 87 115 83 14 15 20 32 27 26 24 10 31 28 22 18 7 9 7 3 13 15 7 15 14 10 7 5 4 10
85 88 95 100 100 98 103 106 113 99 101 92 89 83 82 87 83 84 93 100 19 18 13 26 37 40 43 24 22 22 33 25 18 13 20 9 7 5 16 11 4 8 12 2 5 8 14
88 95 100 100 98 95 90 98 107 120 95 94 92 79 81 86 83 62 80 34 21 19 29 15 41 44 29 34 18 20 34 27 18 11 8 19 12 17 9 12 15 17 14 7 10 8 8
90 90 96 102 114 110 105 94 103 112 119 98 87 81 90 89 84 76 73 35 18 37 27 40 42 48 21 30 18 13 25 38 36 22 17 8 6 7 4 8 13 7 16 12 3 3 3
89 95 97 111 100 105 104 107 98 121 119 100 95 79 82 82 83 77 34 17 8 13 30 43 33 32 41 49 23 22 34 31 23 27 13 13 8 2 6 10 8 5 8 5 7 8 10
84 83 93 89 105 112 112 103 98 132 122 111 92 54 71 89 76 37 32 10 10 31 62 22 21 20 23 51 34 34 36 2 18 27 14 10 8 7 11 10 19 5 5 5 4 6 8
82 93 67 66 46 83 103 108 98 123 130 115 75 12 76 88 21 5 18 23 22 35 15 11 13 11 26 44 14 21 17 5 39 44 27 4 7 8 5 6 9 12 18 12 6 6 5
87 53 46 39 51 81 104 99 119 131 129 110 54 19 69 86 20 12 12 18 15 25 9 10 10 8 31 31 13 11 11 6 34 37 36 19 8 9 3 6 5 12 14 11 8 6 19
69 48 46 55 65 82 91 109 132 135 130 99 31 12 30 58 13 21 30 38 22 20 12 16 14 41 27 28 13 12 8 4 14 22 34 34 8 11 16 10 11 12 13 28 27 9 12
33 40 53 69 79 83 111 134 135 138 123 88 23 8 12 26 15 37 25 49 44 15 10 17 8 33 35 13 8 11 10 9 8 29 13 10 10 7 3 10 7 8 11 24 33 39 17
35 25 62 78 89 107 122 133 137 141 115 61 22 12 22 20 40 46 40 32 50 11 9 6 23 24 17 24 16 24 17 7 9 2 9 1 9 8 3 4 8 12 16 18 23 21 32
47 62 67 88 108 126 137 133 138 135 108 42 22 54 56 36 27 35 14 23 22 19 25 28 44 24 16 13 39 36 22 21 22 16 8 13 10 7 5 3 5 15 31 24 17 23 31
67 73 90 118 123 134 140 135 133 116 99 53 64 64 32 29 29 17 42 37 20 16 21 14 38 16 23 68 65 50 52 41 29 15 19 15 10 5 5 4 7 12 1 17 31 28 35
72 83 96 109 118 126 130 129 119 99 72 71 71 63 35 32 26 41 42 39 49 56 22 16 18 63 57 49 13 14 10 11 10 9 8 8 10 6 10 8 13 18 11 14 17 30 35
78 87 95 106 116 117 115 108 108 70 67 68 54 40 85 32 5 66 38 52 34 19 10 15 50 42 19 8 8 10 8 11 5 8 5 7 9 7 6 10 15 10 11 41 10 37 17
73 84 86 92 93 90 88 85 90 58 61 61 67 93 77 54 23 37 19 22 24 22 12 14 15 9 12 6 7 6 5 2 9 16 11 8 2 11 5 6 19 13 24 20 12 16 29
108 103 98 98 90 87 79 80 93 76 82 88 81 89 82 47 55 32 32 24 32 24 14 28 14 7 9 8 7 7 6 12 6 7 12 13 14 8 6 4 22 7 5 13 12 13 24
110 111 105 100 91 84 77 77 81 74 67 85 84 98 102 75 45 61 55 38 41 41 60 14 11 11 12 9 3 7 5 5 7 6 5 5 10 12 19 16 9 14 17 10 18 24 26
Wind_Direction_500mb
266 260 259 259 253 250 250 247 247 248 247 245 243 238 233 231 228 226 227 228 226 222 217 216 218 222 220 219 228 319 236 211 222 218 218 213 195 167 176 162 162 164 244 231 262 272 279
262 266 260 255 255 253 248 248 246 248 247 245 242 238 235 231 228 225 224 225 224 220 218 215 211 217 218 227 238 225 253 208 209 211 211 208 211 193 156 152 176 192 268 268 273 261 278
263 258 258 257 254 255 250 247 245 243 244 241 242 238 233 231 226 224 222 222 221 220 216 216 212 216 214 222 248 227 218 218 215 210 209 203 201 181 168 141 217 219 313 328 259 251 237
262 261 258 257 254 254 252 248 247 244 242 240 239 239 233 228 226 223 221 219 217 217 213 213 214 217 235 216 202 204 215 227 211 211 212 204 188 179 153 130 75 113 63 184 281 195 241
262 262 259 258 253 252 252 248 248 247 243 241 238 235 233 223 224 220 220 217 219 218 211 207 209 209 231 225 219 207 205 220 200 201 198 192 181 159 149 111 51 13 227 205 313 214 248
261 260 258 255 253 249 248 247 245 244 243 241 240 235 232 220 220 218 215 212 212 209 202 199 209 201 226 202 203 210 198 208 199 174 154 166 164 121 71 147 212 178 217 248 228 337 315
260 257 259 248 254 244 247 240 242 241 237 237 240 235 233 222 216 218 207 202 177 165 190 191 211 184 188 182 194 191 199 205 190 175 176 172 177 206 196 159 121 130 155 194 244 290 292
261 260 256 250 250 247 244 242 247 239 234 231 232 235 233 227 230 208 205 194 184 188 182 196 216 197 177 185 171 183 204 179 177 181 125 153 211 175 142 158 133 131 137 233 277 350 230
264 259 255 255 250 247 244 243 243 239 237 230 228 227 229 235 234 233 202 197 186 165 142 207 206 192 169 189 175 193 200 215 286 152 182 185 190 145 138 150 155 171 223 197 252 327 292
264 260 257 252 251 247 246 243 243 238 231 229 225 225 224 229 230 233 202 196 187 164 120 174 197 201 201 185 200 198 195 183 166 195 200 204 109 148 155 175 154 224 166 243 280 320 270
265 262 258 254 251 249 247 243 239 237 231 229 222 222 220 216 215 222 194 193 177 162 182 166 168 187 179 174 143 184 187 187 155 142 143 201 157 134 155 163 154 205 151 184 186 204 329
266 264 259 256 250 247 246 240 238 238 237 232 224 219 214 214 223 227 193 183 163 153 185 167 149 163 140 176 162 158 175 166 140 107 81 160 156 160 164 129 157 142 98 89 83 123 251
273 270 266 264 262 251 241 238 235 233 233 228 222 219 212 212 211 213 182 159 169 195 133 162 169 161 168 169 160 178 178 177 166 162 170 154 159 138 138 115 88 151 134 220 217 199 243
277 270 267 264 259 255 237 242 229 223 222 222 218 214 208 214 218 214 193 159 186 152 161 181 155 151 172 143 185 179 180 186 173 130 156 162 179 164 180 169 161 176 178 175 210 204 272
279 272 269 260 263 256 249 234 225 216 213 213 209 210 209 203 207 207 195 188 157 158 157 152 140 153 152 168 132 153 191 195 190 180 142 141 153 28 108 122 136 186 202 199 9 62 306
281 275 266 269 261 248 239 234 219 209 201 203 200 204 207 201 202 208 181 160 132 140 134 143 146 172 163 175 153 161 176 195 186 179 143 187 121 178 156 82 53 143 139 133 189 215 226
281 276 278 269 265 245 224 214 207 198 201 194 185 186 198 201 200 207 197 132 138 149 140 154 139 148 169 172 176 180 177 3 159 168 118 140 105 125 122 186 171 118 178 185 250 204 212
286 285 265 270 230 192 190 193 191 187 180 180 176 179 173 183 183 199 169 141 142 141 107 91 86 72 165 165 140 167 197 174 187 163 163 98 107 146 156 54 182 160 180 181 209 193 220
283 265 247 235 191 183 178 183 178 175 177 169 161 142 174 177 186 159 127 133 112 140 90 118 113 113 143 155 134 126 154 309 167 164 163 156 162 125 54 8 15 202 200 193 198 134 224
277 237 231 210 182 179 183 183 175 173 171 160 142 150 154 187 205 133 138 138 120 61 55 71 100 116 121 150 47 126 139 87 179 169 164 154 149 159 194 192 142 179 197 201 208 211 226
211 239 221 197 183 181 164 161 166 167 163 157 153 175 153 170 164 143 142 146 141 133 72 113 73 145 143 137 94 124 109 118 81 162 150 129 160 140 218 112 98 191 191 195 206 223 205
142 148 180 159 171 171 159 159 163 166 161 166 133 152 99 122 163 139 137 159 139 100 105 106 136 145 141 159 159 154 126 134 165 81 126 212 132 132 210 196 244 251 226 230 231 241 255
117 103 139 159 157 163 162 164 162 163 162 156 163 135 128 143 164 139 134 141 144 129 29 120 125 108 96 138 139 152 131 137 148 144 122 142 129 109 207 233 180 280 232 221 220 223 235
112 114 121 135 143 150 153 160 160 163 170 164 147 140 127 145 156 127 124 116 112 84 115 97 118 97 128 121 110 99 80 84 80 62 128 140 116 87 150 70 232 247 253 211 210 233 232
119 123 127 133 140 147 152 157 155 156 163 159 148 145 130 137 127 117 120 107 94 99 88 77 74 131 125 112 79 64 5 35 350 28 99 123 131 128 150 198 303 286 217 195 183 248 229
119 124 129 135 139 145 151 158 162 162 158 157 157 156 135 120 10 132 122 115 116 117 80 80 123 140 113 76 77 117 166 183 257 7 32 79 65 121 102 149 230 246 228 206 78 268 230
113 128 135 134 135 143 153 161 166 157 139 150 132 140 128 103 89 123 117 124 125 90 91 132 139 77 88 70 77 128 205 206 162 161 169 133 46 167 171 222 280 240 253 154 156 277 356
100 115 117 127 140 143 141 144 142 139 146 146 121 137 136 102 53 102 106 111 126 127 134 164 103 10 48 72 117 193 127 211 111 191 176 156 152 178 96 107 276 354 253 212 325 345 359
94 102 103 110 115 119 129 135 147 155 143 134 116 123 121 102 101 90 91 100 121 131 128 134 127 120 145 98 121 113 120 151 161 215 284 206 186 176 183 210 90 51 107 101 353 332 340
Wind_Speed_850mb
70 69 69 70 74 73 77 79 80 89 85 83 80 81 81 79 77 74 69 63 66 68 62 60 54 52 55 50 54 2 18 45 52 39 35 32 24 13 9 9 6 6 6 8 11 21 23
72 73 73 72 72 76 81 80 82 82 87 89 77 79 83 81 79 76 74 66 64 69 65 60 54 54 60 49 48 57 13 40 59 50 42 36 20 21 11 6 9 4 6 14 13 10 13
82 82 79 77 74 75 75 77 79 84 78 89 88 78 80 82 80 78 76 70 62 64 67 59 58 61 55 65 25 56 46 24 55 56 50 40 30 24 17 8 8 2 5 11 9 10 9
77 79 79 77 79 82 80 80 80 80 83 80 87 74 71 81 81 79 77 73 64 60 68 60 53 49 41 73 32 34 56 43 39 57 44 39 27 22 10 11 8 2 6 0 5 7 9
77 76 76 79 80 83 84 85 85 85 85 83 81 85 80 83 80 79 75 73 62 56 62 57 48 51 11 56 64 46 42 51 45 52 46 36 28 12 14 11 5 6 7 8 11 11 3
71 73 72 74 81 81 80 85 86 90 87 88 84 81 74 76 76 81 77 71 60 51 51 49 44 28 37 43 63 64 49 38 54 46 37 32 13 8 1 9 21 12 9 5 6 5 1
71 71 79 73 72 76 72 72 83 87 86 90 88 85 85 85 75 89 81 74 58 27 66 59 28 21 20 36 49 61 55 40 47 49 19 25 13 33 27 7 10 12 7 6 5 6 4
68 70 76 67 69 68 69 72 77 69 73 85 92 91 88 98 95 75 93 93 75 41 29 59 14 74 25 49 36 54 53 37 31 21 20 9 35 15 16 15 9 10 7 5 7 4 2
68 70 67 71 71 76 73 71 74 72 75 77 87 90 89 95 102 70 123 110 86 42 19 37 36 53 34 40 27 56 61 39 5 15 28 24 6 31 16 9 13 9 18 5 10 11 6
71 73 75 78 80 77 84 83 84 76 73 76 76 83 83 85 73 76 104 118 95 57 9 15 28 20 53 28 10 37 68 43 13 26 15 12 4 22 15 12 14 16 11 8 6 3 12
77 80 84 83 87 90 91 92 85 87 79 78 77 79 80 88 63 68 99 125 99 39 17 24 23 24 43 36 23 23 59 29 17 15 12 6 14 15 10 10 11 6 12 13 7 5 6
79 84 92 95 103 104 103 97 97 95 90 84 82 77 77 80 80 52 87 115 83 14 15 20 32 27 26 24 10 31 28 22 18 7 9 7 3 13 15 7 15 14 10 7 5 4 10
85 88 95 100 100 98 103 106 113 99 101 92 89 83 82 87 83 84 93 100 19 18 13 26 37 40 43 24 22 22 33 25 18 13 20 9 7 5 16 11 4 8 12 2 5 8 14
88 95 100 100 98 95 90 98 107 120 95 94 92 79 81 86 83 62 80 34 21 19 29 15 41 44 29 34 18 20 34 27 18 11 8 19 12 17 9 12 15 17 14 7 10 8 8
90 90 96 102 114 110 105 94 103 112 119 98 87 81 90 89 84 76 73 35 18 37 27 40 42 48 21 30 18 13 25 38 36 22 17 8 6 7 4 8 13 7 16 12 3 3 3
89 95 97 111 100 105 104 107 98 121 119 100 95 79 82 82 83 77 34 17 8 13 30 43 33 32 41 49 23 22 34 31 23 27 13 13 8 2 6 10 8 5 8 5 7 8 10
84 83 93 89 105 112 112 103 98 132 122 111 92 54 71 89 76 37 32 10 10 31 62 22 21 20 23 51 34 34 36 2 18 27 14 10 8 7 11 10 19 5 5 5 4 6 8
82 93 67 66 46 83 103 108 98 123 130 115 75 12 76 88 21 5 18 23 22 35 15 11 13 11 26 44 14 21 17 5 39 44 27 4 7 8 5 6 9 12 18 12 6 6 5
87 53 46 39 51 81 104 99 119 131 129 110 54 19 69 86 20 12 12 18 15 25 9 10 10 8 31 31 13 11 11 6 34 37 36 19 8 9 3 6 5 12 14 11 8 6 19
69 48 46 55 65 82 91 109 132 135 130 99 31 12 30 58 13 21 30 38 22 20 12 16 14 41 27 28 13 12 8 4 14 22 34 34 8 11 16 10 11 12 13 28 27 9 12
33 40 53 69 79 83 111 134 135 138 123 88 23 8 12 26 15 37 25 49 44 15 10 17 8 33 35 13 8 11 10 9 8 29 13 10 10 7 3 10 7 8 11 24 33 39 17
35 25 62 78 89 107 122 133 137 141 115 61 22 12 22 20 40 46 40 32 50 11 9 6 23 24 17 24 16 24 17 7 9 2 9 1 9 8 3 4 8 12 16 18 23 21 32
47 62 67 88 108 126 137 133 138 135 108 42 22 54 56 36 27 35 14 23 22 19 25 28 44 24 16 13 39 36 22 21 22 16 8 13 10 7 5 3 5 15 31 24 17 23 31
67 73 90 118 123 134 140 135 133 116 99 53 64 64 32 29 29 17 42 37 20 16 21 14 38 16 23 68 65 50 52 41 29 15 19 15 10 5 5 4 7 12 1 17 31 28 35
72 83 96 109 118 126 130 129 119 99 72 71 71 63 35 32 26 41 42 39 49 56 22 16 18 63 57 49 13 14 10 11 10 9 8 8 10 6 10 8 13 18 11 14 17 30 35
78 87 95 106 116 117 115 108 108 70 67 68 54 40 85 32 5 66 38 52 34 19 10 15 50 42 19 8 8 10 8 11 5 8 5 7 9 7 6 10 15 10 11 41 10 37 17
73 84 86 92 93 90 88 85 90 58 61 61 67 93 77 54 23 37 19 22 24 22 12 14 15 9 12 6 7 6 5 2 9 16 11 8 2 11 5 6 19 13 24 20 12 16 29
108 103 98 98 90 87 79 80 93 76 82 88 81 89 82 47 55 32 32 24 32 24 14 28 14 7 9 8 7 7 6 12 6 7 12 13 14 8 6 4 22 7 5 13 12 13 24
110 111 105 100 91 84 77 77 81 74 67 85 84 98 102 75 45 61 55 38 41 41 60 14 11 11 12 9 3 7 5 5 7 6 5 5 10 12 19 16 9 14 17 10 18 24 26
Wind_Direction_850mb
266 260 259 259 253 250 250 247 247 248 247 245 243 238 233 231 228 226 227 228 226 222 217 216 218 222 220 219 228 319 236 211 222 218 218 213 195 167 176 162 162 164 244 231 262 272 279
262 266 260 255 255 253 248 248 246 248 247 245 242 238 235 231 228 225 224 225 224 220 218 215 211 217 218 227 238 225 253 208 209 211 211 208 211 193 156 152 176 192 268 268 273 261 278
263 258 258 257 254 255 250 247 245 243 244 241 242 238 233 231 226 224 222 222 221 220 216 216 212 216 214 222 248 227 218 218 215 210 209 203 201 181 168 141 217 219 313 328 259 251 237
262 261 258 257 254 254 252 248 247 244 242 240 239 239 233 228 226 223 221 219 217 217 213 213 214 217 235 216 202 204 215 227 211 211 212 204 188 179 153 130 75 113 63 184 281 195 241
262 262 259 258 253 252 252 248 248 247 243 241 238 235 233 223 224 220 220 217 219 218 211 207 209 209 231 225 219 207 205 220 200 201 198 192 181 159 149 111 51 13 227 205 313 214 248
261 260 258 255 253 249 248 247 245 244 243 241 240 235 232 220 220 218 215 212 212 209 202 199 209 201 226 202 203 210 198 208 199 174 154 166 164 121 71 147 212 178 217 248 228 337 315
260 257 259 248 254 244 247 240 242 241 237 237 240 235 233 222 216 218 207 202 177 165 190 191 211 184 188 182 194 191 199 205 190 175 176 172 177 206 196 159 121 130 155 194 244 290 292
261 260 256 250 250 247 244 242 247 239 234 231 232 235 233 227 230 208 205 194 184 188 182 196 216 197 177 185 171 183 204 179 177 181 125 153 211 175 142 158 133 131 137 233 277 350 230
264 259 255 255 250 247 244 243 243 239 237 230 228 227 229 235 234 233 202 197 186 165 142 207 206 192 169 189 175 193 200 215 286 152 182 185 190 145 138 150 155 171 223 197 252 327 292
264 260 257 252 251 247 246 243 243 238 231 229 225 225 224 229 230 233 202 196 187 164 120 174 197 201 201 185 200 198 195 183 166 195 200 204 109 148 155 175 154 224 166 243 280 320 270
265 262 258 254 251 249 247 243 239 237 231 229 222 222 220 216 215 222 194 193 177 162 182 166 168 187 179 174 143 184 187 187 155 142 143 201 157 134 155 163 154 205 151 184 186 204 329
266 264 259 256 250 247 246 240 238 238 237 232 224 219 214 214 223 227 193 183 163 153 185 167 149 163 140 176 162 158 175 166 140 107 81 160 156 160 164 129 157 142 98 89 83 123 251
273 270 266 264 262 251 241 238 235 233 233 228 222 219 212 212 211 213 182 159 169 195 133 162 169 161 168 169 160 178 178 177 166 162 170 154 159 138 138 115 88 151 134 220 217 199 243
277 270 267 264 259 255 237 242 229 223 222 222 218 214 208 214 218 214 193 159 186 152 161 181 155 151 172 143 185 179 180 186 173 130 156 162 179 164 180 169 161 176 178 175 210 204 272
279 272 269 260 263 256 249 234 225 216 213 213 209 210 209 203 207 207 195 188 157 158 157 152 140 153 152 168 132 153 191 195 190 180 142 141 153 28 108 122 136 186 202 199 9 62 306
281 275 266 269 261 248 239 234 219 209 201 203 200 204 207 201 202 208 181 160 132 140 134 143 146 172 163 175 153 161 176 195 186 179 143 187 121 178 156 82 53 143 139 133 189 215 226
281 276 278 269 265 245 224 214 207 198 201 194 185 186 198 201 200 207 197 132 138 149 140 154 139 148 169 172 176 180 177 3 159 168 118 140 105 125 122 186 171 118 178 185 250 204 212
286 285 265 270 230 192 190 193 191 187 180 180 176 179 173 183 183 199 169 141 142 141 107 91 86 72 165 165 140 167 197 174 187 163 163 98 107 146 156 54 182 160 180 181 209 193 220
283 265 247 235 191 183 178 183 178 175 177 169 161 142 174 177 186 159 127 133 112 140 90 118 113 113 143 155 134 126 154 309 167 164 163 156 162 125 54 8 15 202 200 193 198 134 224
277 237 231 210 182 179 183 183 175 173 171 160 142 150 154 187 205 133 138 138 120 61 55 71 100 116 121 150 47 126 139 87 179 169 164 154 149 159 194 192 142 179 197 201 208 211 226
211 239 221 197 183 181 164 161 166 167 163 157 153 175 153 170 164 143 142 146 141 133 72 113 73 145 143 137 94 124 109 118 81 162 150 129 160 140 218 112 98 191 191 195 206 223 205
142 148 180 159 171 171 159 159 163 166 161 166 133 152 99 122 163 139 137 159 139 100 105 106 136 145 141 159 159 154 126 134 165 81 126 212 132 132 210 196 244 251 226 230 231 241 255
117 103 139 159 157 163 162 164 162 163 162 156 163 135 128 143 164 139 134 141 144 129 29 120 125 108 96 138 139 152 131 137 148 144 122 142 129 109 207 233 180 280 232 221 220 223 235
112 114 121 135 143 150 153 160 160 163 170 164 147 140 127 145 156 127 124 116 112 84 115 97 118 97 128 121 110 99 80 84 80 62 128 140 116 87 150 70 232 247 253 211 210 233 232
119 123 127 133 140 147 152 157 155 156 163 159 148 145 130 137 127 117 120 107 94 99 88 77 74 131 125 112 79 64 5 35 350 28 99 123 131 128 150 198 303 286 217 195 183 248 229
119 124 129 135 139 145 151 158 162 162 158 157 157 156 135 120 10 132 122 115 116 117 80 80 123 140 113 76 77 117 166 183 257 7 32 79 65 121 102 149 230 246 228 206 78 268 230
113 128 135 134 135 143 153 161 166 157 139 150 132 140 128 103 89 123 117 124 125 90 91 132 139 77 88 70 77 128 205 206 162 161 169 133 46 167 171 222 280 240 253 154 156 277 356
100 115 117 127 140 143 141 144 142 139 146 146 121 137 136 102 53 102 106 111 126 127 134 164 103 10 48 72 117 193 127 211 111 191 176 156 152 178 96 107 276 354 253 212 325 345 359
94 102 103 110 115 119 129 135 147 155 143 134 116 123 121 102 101 90 91 100 121 131 128 134 127 120 145 98 121 113 120 151 161 215 284 206 186 176 183 210 90 51 107 101 353 332 340